Tracking 17887 objects as of 10-December-2016
HD Live streaming from Space Station
objects crossing your sky now

COSMOS 2251 DEB

Track COSMOS 2251 DEB now!
10-day predictions


NORAD ID: 37120
Int'l Code: 1993-036BGS
Perigee: 737.5 km
Apogee: 810.2 km
Inclination: 74.0 °
Period: 100.2 minutes
Semi major axis: 7144 km
RCS: 0.0125 m2 (small)
Launch date: June 16, 1993
Source: Commonwealth of Independent States (former USSR) (CIS)
Launch site: PLESETSK MISSILE AND SPACE COMPLEX (PKMTR)

Note: This is SATELLITE DEBRIS
Your satellite tracking list
Your tracking list is empty





NASA's NSSDC Master Catalog

Two Line Element Set (TLE):
1 37120U 93036BGS 16332.11501920  .00002206  00000-0  73401-3 0  9996
2 37120  74.0175 255.5499 0050869  21.6763 338.6527 14.37507376359870
Source of the keplerian elements: AFSPC